Regional Weather Roundup
Issued by NWS Cleveland, OH

Home | Current Version | Previous Version | Graphics & Text | Print | Product List | Glossary On
Versions: 1 2 3 4 5 6 7 8 9 10 11 12 13 14 15 16 17 18 19 20 21 22 23 24 25 26 27 28 29 30 31 32 33 34 35 36 37 38 39 40 41 42 43 44 45 46 47 48 49 50
000
ASUS41 KCLE 301210
RWRCLE
OHIO REGIONAL WEATHER ROUNDUP
NATIONAL WEATHER SERVICE WILMINGTON, OH
700 AM EST FRI JAN 30 2015

NOTE: "FAIR" INDICATES FEW OR NO CLOUDS BELOW 12,000 FEET WITH NO
SIGNIFICANT WEATHER AND/OR OBSTRUCTIONS TO VISIBILITY.

OHZ001>008-015>018-024>027-034-035-043-044-301300-
   NORTHWEST OHIO

CITY           SKY/WX    TMP DP  RH WIND       PRES   REMARKS
DEFIANCE       CLOUDY    23  10  57 NW16G25   30.35R WCI  10
FINDLAY        CLOUDY    23  11  60 NW15      30.29R WCI  10
TOLEDO EXPRESS PTCLDY    20  10  65 NW15G24   30.32R WCI   6
TOLEDO EXEC    CLEAR     21  10  62 N17       30.33R WCI   7
LIMA           CLOUDY    23  12  62 NW20G25   30.30R WCI   8
$$

OHZ009>014-019>023-028>033-038-089-301300-
   NORTHEAST OHIO

CITY           SKY/WX    TMP DP  RH WIND       PRES   REMARKS
CLE-HOPKINS    LGT SNOW  20  14  77 N23G33    30.26R BLWGSNOWWCI   3
CLE-LAKEFRONT  FLURRIES  21  15  78 NW22      30.24R WCI   5
CUY CO. ARPT   FLURRIES  21  18  86 NW17G26   30.21  WCI   7
LORAIN-ELYRIA  LGT SNOW  19  14  81 N17G30    30.26R WCI   4
ASHTABULA      LGT SNOW  19  14  81 NW17G28   30.16R WCI   4
AKRON-CANTON   LGT SNOW  21  14  74 N17G26    30.17R WCI   7
WOOSTER        LGT SNOW  20  15  81 NW16G24   30.21R WCI   6
MANSFIELD      LGT SNOW  20  13  74 NW15G22   30.21R WCI   6
YOUNGSTOWN     FLURRIES  21  16  81 NW21G29   30.12R WCI   5
$$

OHZ042-051>053-060>062-070>072-077>081-301300-
  SOUTHWEST OHIO

CITY           SKY/WX    TMP DP  RH WIND       PRES   REMARKS
CINC-COVINGTON FLURRIES  31  25  78 N22G31    30.31R WCI  18
CINC-LUNKEN    NOT AVBL
HAMILTON       FLURRIES  30  20  66 N13       30.35R WCI  20
DAYTON         MOCLDY    24  15  68 N21G28    30.33R WCI   9
WRIGHT-PAT AFB MOCLDY    24  13  62 NW16G25   30.32R WCI  11
DAYTON GENERAL CLOUDY    26  13  57 N21G29    30.31R WCI  12
WILMINGTON     CLOUDY    26  17  68 N18G28    30.29R WCI  13
$$

OHZ036-037-039>041-045>050-054>059-063>069-073>076-082>088-301300-
  CENTRAL AND SOUTHEAST OHIO

CITY           SKY/WX    TMP DP  RH WIND       PRES   REMARKS
COLUMBUS       LGT SNOW  23  16  74 N20G32    30.26R WCI   8
OSU AIRPORT    MOCLDY    23  14  68 N21G30    30.26R WCI   8
BOLTON FIELD   NOT AVBL
RICKENBACK AFB PTCLDY    25  14  62 NW21G26   30.26R WCI  11
NEWARK         CLOUDY    25  15  66 N15G23    30.23R WCI  13
MARION         CLOUDY    22  12  65 NW16G23   30.27R WCI   8
LANCASTER      CLOUDY    27  17  66 NW20      30.24R WCI  13
ZANESVILLE     LGT SNOW  24  15  68 N22G32    30.22R WCI   9
NEW PHILLY     CLOUDY    25  14  63 NW16G26   30.19R WCI  12
$$


USA.gov is the U.S. government's official web portal to all federal, state and local government web resources and services.